Regional Weather Roundup
Issued by NWS Boston, MA

Current Version | Previous Version | Text Only | Print | Product List | Glossary Off
Versions: 1 2 3 4 5 6 7 8 9 10 11 12 13 14 15 16 17 18 19 20 21 22 23 24 25 26 27 28 29 30 31 32 33 34 35 36 37 38 39 40 41 42 43 44 45 46 47 48 49 50
000 ASUS41 KBOX 221110 RWRBOX REGIONAL WEATHER ROUNDUP NATIONAL WEATHER SERVICE TAUNTON MA 700 AM EDT SAT JUL 22 2017 NOTE: "FAIR" INDICATES FEW OR NO CLOUDS BELOW 12,000 FEET WITH NO SIGNIFICANT WEATHER AND/OR OBSTRUCTIONS TO VISIBILITY. MAZALL-221200- EASTERN MASSACHUSETTS CITY SKY/WX TMP DP RH WIND PRES REMARKS BOSTON CLOUDY 75 58 55 W10 29.85R BEVERLY CLOUDY 69 62 78 W3 29.84R LAWRENCE CLOUDY 73 61 65 CALM 29.87R BEDFORD CLOUDY 68 59 73 W3 29.85R BLUE HILL N/A 70 58 65 NW8 29.87R NORWOOD CLOUDY 66 64 93 CALM 29.85R MARSHFIELD MOSUNNY 70 63 78 W3 29.85R PLYMOUTH SUNNY 68 63 84 CALM 29.86R TAUNTON SUNNY 68 64 87 CALM 29.85R NEW BEDFORD SUNNY 68 63 84 CALM 29.85R $$ MAZALL-221200- CAPE COD AND THE ISLANDS CITY SKY/WX TMP DP RH WIND PRES REMARKS FALMOUTH MOSUNNY 70 64 83 CALM 29.87R HYANNIS MOSUNNY 74 61 63 NW3 29.84R CHATHAM MOSUNNY 74 63 68 VRB3 29.85R PROVINCETOWN SUNNY 70 64 81 NW3 29.85R NANTUCKET MOSUNNY 73 68 84 W7 29.86R MARTHAS VNYRD SUNNY 71 68 90 CALM 29.86R $$ MAZALL-221200- CENTRAL AND WESTERN MASSACHUSETTS CITY SKY/WX TMP DP RH WIND PRES REMARKS WORCESTER CLOUDY 68 57 68 W5 29.91R FITCHBURG CLOUDY 71 61 70 NW3 29.87R ORANGE CLOUDY 63 61 93 CALM 29.89R SPRINGFIELD CLOUDY 65 62 91 CALM 29.87R WESTFIELD CLOUDY 66 62 87 S3 29.88R NORTH ADAMS CLOUDY 63 60 90 CALM 29.92R PITTSFIELD CLOUDY 63 59 87 CALM 29.91R $$ RIZALL-221200- RHODE ISLAND CITY SKY/WX TMP DP RH WIND PRES REMARKS PROVIDENCE PTSUNNY 73 64 73 NW3 29.87R NEWPORT SUNNY 71 69 93 CALM 29.87R BLOCK ISLAND SUNNY 72 66 81 W6 29.88R WESTERLY SUNNY 72 64 76 CALM 29.88R $$ CTZALL-221200- CONNECTICUT CITY SKY/WX TMP DP RH WIND PRES REMARKS BRADLEY INTL CLOUDY 68 60 75 CALM 29.88R HARTFORD MOSUNNY 72 62 71 CALM 29.88R BRIDGEPORT SUNNY 75 64 68 S3 29.88R DANBURY SUNNY 67 65 93 CALM 29.91S GROTON SUNNY 72 63 73 CALM 29.88R NEW HAVEN SUNNY 73 65 75 CALM 29.88R CHESTER NOT AVBL MERIDEN SUNNY 68 63 84 CALM 29.88R WILLIMANTIC SUNNY 68 64 87 CALM 29.89R OXFORD MOSUNNY 66 55 68 N7 29.89S $$ MEZ002-015-021-024-NHZ003-005-008-011-012-014-VTZ005-008-221200- NORTHERN NEW ENGLAND CITY SKY/WX TMP DP RH WIND PRES REMARKS PORTLAND ME MOSUNNY 70 61 73 W3 29.82S BANGOR ME MOSUNNY 67 60 78 NW3 29.81R CONCORD NH PTSUNNY 66 62 87 CALM 29.87R MANCHESTER NH CLOUDY 73 58 59 N5 29.86R NASHUA NH CLOUDY 68 61 78 NW5 29.87R PORTSMOUTH NH PTSUNNY 71 62 73 NW6 29.84R JAFFREY NH CLOUDY 64 61 90 CALM 29.91R KEENE NH CLOUDY 63 61 93 CALM 29.90R BURLINGTON VT MOSUNNY 65 63 93 NE5 29.87S MT. WASHINGTON PTSUNNY 48 39 71 NW32 N/A $$ NYZ052-076-221200- EASTERN NEW YORK CITY SKY/WX TMP DP RH WIND PRES REMARKS ALBANY CLOUDY 68 61 78 CALM 29.89R NEW YORK CITY PTSUNNY 80 69 69 N3 29.87R $$ ANZALL-221200- MARINE OBSERVATIONS STATION/POSITION TIME TEMP WIND PRES VSBY WAVE AIR SEA DIR/SP/G HT/PER (UTC) (F) (DEG/KT/KT) (MB) (MI) (FT/S) BOSTON BUOY 1050 70 69 280/ 6/ 8 1010.3R 1/11 BUZZARDS BAY 1000 74 240/ 9/ 9 1010.8R NANTUCKET SOUND 1050 71 1010.7R 1 MASS BAY-STELLWA 1004 68 64 290/ 6/ 6 1009.3S 1/11 ISLE OF SHOALS 1000 72 320/ 10/ 10 1009.4S S OF BLOCK IS 1055 72 N/A 3/ 6 $$ ......................KEY......................... SKY/WX - SKY CONDITION/PRESENT WEATHER TMP - TEMPERATURE IN FAHRENHEIT DWPT - DEWPOINT IN FAHRENHEIT RH - RELATIVE HUMIDITY IN PERCENT WIND - DIRECTION AND SPEED IN MPH PRES - MEAN SEA LEVEL PRESSURE IN INCHES OF HG WCI - WIND CHILL INDEX VSB - VISIBILITY IN MILES HX - HEAT INDEX TC - TEMPERATURE IN CELSIUS VRB - VARIABLE WIND DIRECTION N/A - NOT AVAILABLE

USA.gov is the U.S. government's official web portal to all federal, state and local government web resources and services.